Regional Weather Roundup
Issued by NWS Mobile, AL

Home | Current Version | Previous Version | Text Only | Print | Product List | Glossary On
Versions: 1 2 3 4 5 6 7 8 9 10 11 12 13 14 15 16 17 18 19 20 21 22 23 24 25 26 27
000
ASUS44 KMOB 310512
RWRMOB
REGIONAL WEATHER ROUNDUP
NATIONAL WEATHER SERVICE MOBILE AL
1200 AM CDT SUN JUL 31 2016

NOTE: "FAIR" INDICATES FEW OR NO CLOUDS BELOW 12,000 FEET WITH NO
      SIGNIFICANT WEATHER AND/OR OBSTRUCTIONS TO VISIBILITY.

  * THESE STATIONS ARE PART OF THE UNIVERSITY OF SOUTH ALABAMA
    MESONET AND ARE NOT UNDER NWS OR FAA QUALITY CONTROL.

ALZ061>064-310600-
COASTAL ALABAMA

CITY           SKY/WX    TMP DP  RH WIND       PRES   REMARKS
MOBILE REG APT CLEAR     77  75  93 NW5       30.05R
BROOKLEY FIELD CLEAR     80  77  90 CALM      30.05S
USA CAMPUS*    NOT AVBL
DOG RIVER*     NOT AVBL


CITY           SKY/WX    TMP DP  RH WIND       PRES   REMARKS
MOUNT VERNON*  NOT AVBL
SARALAND*      NOT AVBL
BAY MINETTE*   NOT AVBL
LOXLEY*        NOT AVBL
ROBERTSDALE*   NOT AVBL
FAIRHOPE*      NOT AVBL
ELBERTA*       NOT AVBL
FOLEY*         NOT AVBL
GRAND BAY*     NOT AVBL
DAUPHIN ISLND* NOT AVBL
BON SCOUR NWR* NOT AVBL
GULF SHORES    PTCLDY    79  78  96 CALM      30.03S

$$

ALZ051>060-310600-
INTERIOR SOUTHWEST AND SOUTH CENTRAL ALABAMA

CITY           SKY/WX    TMP DP  RH WIND       PRES   REMARKS
GREENVILLE     CLOUDY    79  73  82 CALM      30.04S
EVERGREEN      CLOUDY    78  75  90 CALM      30.05S
CASTLEBERRY*   NOT AVBL
ATMORE*        NOT AVBL
DIXIE*         NOT AVBL
ANDALUSIA/OPP  MOCLDY    82  75  79 W3        30.04S
ANDALUSIA*     NOT AVBL
FLORALA APT    CLEAR     77  75  93 CALM      30.06R
FLORALA*       NOT AVBL

$$

FLZ001>006-310600-
WESTERN FLORIDA PANHANDLE

CITY           SKY/WX    TMP DP  RH WIND       PRES   REMARKS
PENSACOLA      CLEAR     83  76  79 SW7       30.02S
NAS PENSACOLA  CLEAR     82  76  81 SW3       30.02S
MILTON         CLEAR     79  77  94 W6        30.03S
WHTNG S FIELD  CLEAR     82  78  88 CALM      30.03


CITY           SKY/WX    TMP DP  RH WIND       PRES   REMARKS
WALNUT HILL*   NOT AVBL
JAY*           NOT AVBL
DUKE FIELD     CLEAR     80  75  83 W3        30.02S
CRESTVIEW      CLEAR     81  75  82 W5        30.04S
VALPARAISO     CLEAR     81  76  83 NW2       30.02S
DESTIN         CLEAR     88  77  69 VRB3      30.01F HX 100

$$

MSZ076-079-310600-
INTERIOR SOUTHEAST MISSISSIPPI

CITY           SKY/WX    TMP DP  RH WIND       PRES   REMARKS
LEAKESVILLE*   NOT AVBL
AGRICOLA*      NOT AVBL

$$

MARINE OBSERVATIONS

STATION/POSITION TIME  TEMP    WIND        PRES    WAVE
                       AIR SEA DIR/SP/G            HT/PER
                 (UTC) (F)     (DEG/KT/KT) (MB)    (FT/S)
PASCAGOULA       0400   86     230/  5/  8 1016.7R
PETIT BOIS ISLND 0400   85     220/ 10/ 12 1017.7R
GRAND BAY        0345   85     240/  6     1018.0S
KATRINA CUT      0400   86     240/ 10     1017.6S
CEDAR POINT      0400   85     230/ 11     1016.9S
E DAUPHIN ISLAND 0400   86     210/  7/  9 1016.8S
MIDDLE BAY LIGHT 0400   86     220/ 11     1016.9S
USCG MOBILE BAY  0400   83 87  240/  4/  6 1017.6
STATE DOCKS      0400   84                 1016.8R
MEAHER PARK      0400   85     230/  9     1017.3R
WEEKS BAY        0300   80                   N/A
FORT MORGAN      0400   85     240/ 11/ 12 1016.6R
12 S ORANGE BCH  0450   86 88  230/ 10/ 12 1016.9F   1/ 3
PENSACOLA BAY    0400   86 89  230/  5/  7 1016.8
64 S DAUPHIN ISL 0400   86 89  230/  6/  8 1017.3R
67 S FORT MORGAN 0430   85     220/  8     1017.3S

$$

SELECTED LOCATIONS ACROSS THE REGION

CITY           SKY/WX    TMP DP  RH WIND       PRES   REMARKS
NEW ORLEANS    PTCLDY    83  76  79 W5        30.03S
GULFPORT       CLEAR     80  77  90 CALM      30.02F
PASCAGOULA AP  CLEAR     77  77 100 CALM      30.03S
PASCAGOULA*    NOT AVBL
HATTIESBURG    PTCLDY    76  74  93 CALM      30.04F
LAUREL         CLOUDY    73  72  94 W3        30.06R
MERIDIAN       CLOUDY    78  74  87 SW3       30.04R
JACKSON        HVY RAIN  74  70  87 W10G32    30.08R FOG
MONTGOMERY     CLOUDY    78  72  81 CALM      30.03S
TROY           PTCLDY    76  75  97 CALM      30.05S
KINSTON*       NOT AVBL
GENEVA*        NOT AVBL
ASHFORD*       NOT AVBL
DOTHAN         CLEAR     77  74  90 S5        30.07R
PANAMA CITY    CLEAR     79  76  90 CALM      30.01F

$$





USA.gov is the U.S. government's official web portal to all federal, state and local government web resources and services.